OBJECT E, 57170

Orbit data source: Space-Track

You're viewing an Uncataloged Satellite

Recently launched and/or uncataloged satellites may have evolving metadata. Metadata may include but not limited to: Owner, Maufacturer, Bus, Motor, and Mission.

OBJECT E, 57170 is a satellite in SSO that was launched on Tue, 27 Jun 2023 UTC via a SOYUZ-2-1B launch vehicle from the Vostochny Cosmodrome (VOSTO). Unknown objects in Earth's orbit typically refer to objects detected orbiting the Earth but have not yet been identified or cataloged. These objects could be anything from previously untracked satellites, spent rocket stages, debris from satellite collisions, or even natural meteoroids temporarily captured by Earth's gravity.

Loading next visibility...
Identifier
57170, 2023-091E
Orbit
SSO
Country
Flag of TBDTBD
Related business
None
Manufacturer
Unknown
Mission
Operational Commercial Communications
Bus & Motor
Unknown
Mass
Unknown
Launch date (UTC)
2023-06-27 (3 years ago)
Launch vehicle
SOYUZ-2-1B
Launch site
Vostochny Cosmodrome (VOSTO)
Object type
Unknown
Shape & HBR
Box + 2 Pan, 1.5 m
Radar Cross Section
1.055 m², Medium (>0.1 m² and < 1m²)

Expand to show TLE details & history
Last TLE update: 7 hours ago

TLE from 7 hours ago
0 OBJECT E
1 57170U 23091E   26106.25676434  .00004537  00000-0  19472-3 0  9992
2 57170  97.5172 167.7709 0007700 315.9112  44.1510 15.23203773154734
Epoch: 2026-04-16T06:09Z
TLE epoch observation values (Epoch: 2026-04-16T06:09:44.438Z)
Latitude
-0.00005°
Longitude
-129.07116°
Altitude
495.479 km
Speed
7.619 km/s
True Right ascension
11h 11m 05s
True Declination
0° 00' 00"
Sunlit
Object was in full shadow at epoch
Visualization orbit readout
Latitude
Unknown
Longitude
Unknown
Altitude
Unknown
Speed
Unknown
Apparent Right ascension
Unknown
Apparent Declination
Unknown
Sunlit
N/A
Visualization observer readout
Local Sidereal Time
20:13:50
Azimuth
Unknown
Elevation
Unknown
Doppler factor
Unknown
Orbital elements
Apogee altitude
498.442 km
Perigee altitude
487.86 km
Semi-major axis
6,871.288 km
Eccentricity
0.00077
Inclination
97.5172°
RAAN
167.7709°
Arg. of periapsis
315.9112°
True anomaly
44.2125°
Mean anomaly
44.151°
Eccentric anomaly
44.18175°
Mean motion
3.81054 °/min
Orbital period
94.47 mins
BSTAR
0.00019472
Loading maneuver chart data...
Computing Atmospheric mass density...
Loading historical data...
Loading historical data...
Loading historical data...
Loading historical data...
Loading historical data...
Loading historical data...
Loading historical data...

Documentation

Showing up to 5 results
|